Temp
72 72 71 71 71 72 71 71 72 71 71 71 69 70 69 70 71 70 71 71 71 70 70 70 71 71 72 70 69 71 71 69 69 69 69 68 67 68 68 68 67 67
72 72 72 72 71 72 72 72 71 71 71 70 70 69 70 70 70 70 69 70 71 70 71 71 71 71 70 70 69 68 68 68 68 72 67 68 66 67 66 66 66 67
72 72 72 71 70 70 71 72 72 71 70 70 70 70 70 71 69 70 70 69 69 69 69 69 68 69 69 69 69 68 68 67 66 67 67 68 66 66 65 66 66 66
71 71 71 71 70 70 70 70 69 69 69 69 69 70 70 71 69 68 68 70 68 68 69 70 69 69 70 69 68 67 68 67 67 66 66 66 66 67 66 66 67 67
71 71 71 70 70 70 70 69 69 68 68 68 68 68 69 68 68 68 68 68 68 68 68 67 68 68 68 68 67 66 66 66 66 66 65 65 66 66 67 66 66 66
71 72 72 71 70 69 69 69 69 69 68 68 68 69 69 69 68 69 68 68 68 68 68 68 69 68 67 67 66 66 66 68 66 67 67 66 67 68 72 68 66 65
71 71 70 70 70 69 68 69 68 68 68 68 69 68 69 69 69 69 69 68 69 69 68 67 67 67 68 67 66 66 66 66 67 68 68 67 66 66 69 68 68 67
71 71 71 70 69 69 69 69 68 67 68 70 68 69 70 71 71 69 69 69 69 69 68 69 68 68 68 67 67 66 67 69 69 68 67 67 66 66 67 69 66 65
71 71 71 70 69 69 68 69 68 68 68 68 69 68 69 70 70 69 69 70 70 69 70 69 69 69 67 67 66 67 68 68 68 66 65 66 66 66 69 68 66 65
71 71 70 70 69 69 69 68 68 68 69 68 70 69 71 69 70 71 71 69 69 69 69 68 69 68 68 69 69 68 68 67 67 66 67 67 67 67 69 67 65 64
69 70 69 69 68 69 69 69 69 69 69 70 69 70 71 70 70 71 71 70 69 70 70 69 69 69 68 68 68 68 68 67 67 67 67 67 68 68 67 66 66 66
68 69 70 70 70 70 70 70 70 70 70 70 72 71 70 70 70 70 72 72 71 71 70 70 70 69 70 69 69 69 67 67 67 67 69 69 68 68 68 67 65 68
70 69 69 70 69 70 71 70 70 70 71 71 71 71 70 69 70 70 69 71 71 70 71 70 71 71 69 68 68 69 68 68 67 66 68 68 68 70 69 68 68 68
69 69 69 69 69 70 70 71 71 69 70 70 71 70 70 71 70 70 70 71 70 70 70 70 70 70 70 70 70 68 68 67 67 66 67 68 67 69 68 68 68 68
68 69 69 68 69 68 69 69 69 69 70 70 70 71 71 72 72 72 70 70 70 70 71 70 69 69 71 70 69 70 70 67 67 69 67 66 65 64 65 66 66 65
66 66 67 67 67 68 68 68 67 68 69 70 70 71 71 71 71 71 70 70 70 70 70 69 69 69 67 62 63 70 69 70 67 66 67 65 64 63 64 65 65 64
65 64 65 65 64 65 67 67 67 67 67 68 68 69 70 71 69 69 68 70 70 69 68 68 69 69 56 54 54 58 67 66 66 65 65 65 64 64 63 64 64 64
65 64 63 63 64 66 65 65 67 67 67 67 67 67 66 67 67 67 68 69 68 69 67 68 69 54 48 51 51 52 58 66 64 63 62 62 62 62 63 63 64 63
72 70 65 62 63 65 67 67 66 67 67 66 66 66 65 64 65 66 67 68 67 68 68 67 68 45 47 47 48 49 52 60 66 64 63 62 61 62 62 63 62 60
70 70 70 69 67 66 66 68 67 66 65 66 65 62 61 61 61 63 65 65 66 66 66 64 63 48 45 46 47 48 49 55 67 65 64 63 62 63 63 62 60 59
69 69 69 69 69 68 66 66 66 65 64 64 64 63 61 61 62 61 61 62 62 61 59 60 61 49 44 45 45 46 45 50 64 65 64 64 63 63 63 62 61 61
67 67 67 67 68 67 68 68 67 68 67 65 65 65 64 63 63 63 61 61 61 60 59 57 60 45 44 45 44 44 43 54 61 60 60 62 63 61 61 61 62 61
66 66 65 65 65 66 66 65 65 66 66 67 66 65 64 64 63 63 62 62 62 61 60 61 56 42 45 45 45 44 45 55 58 58 58 58 59 60 59 60 62 63
63 66 65 64 64 64 64 63 64 64 65 66 65 64 64 64 64 63 62 62 61 61 61 61 57 47 43 46 44 43 48 58 59 59 58 58 58 59 61 58 54 51
64 64 64 64 63 63 63 62 62 63 64 65 65 65 64 66 66 64 60 61 61 61 58 59 60 52 42 43 42 42 47 58 59 59 57 57 59 60 60 55 53 51
62 63 62 62 63 62 62 62 62 63 62 63 64 66 66 66 65 65 61 60 62 62 60 59 59 59 50 43 43 43 43 56 59 55 54 57 60 60 57 55 52 50
MSLP
1015.37 1015.57 1015.85 1016.01 1016.17 1016.29 1016.45 1016.57 1016.61 1016.73 1016.77 1016.89 1017.21 1017.37 1017.57 1017.61 1017.61 1017.69 1017.77 1017.77 1017.81 1017.85 1017.89 1017.85 1017.77 1017.69 1017.61 1017.69 1017.77 1017.89 1018.17 1018.33 1018.49 1018.57 1018.73 1018.89 1018.97 1019.01 1019.13 1019.05 1019.05 1019.09
1015.33 1015.49 1015.69 1015.89 1016.13 1016.25 1016.37 1016.41 1016.53 1016.61 1016.77 1016.93 1017.13 1017.37 1017.53 1017.65 1017.69 1017.81 1017.93 1017.97 1017.93 1018.01 1017.93 1017.89 1017.85 1017.77 1017.81 1017.85 1017.93 1018.21 1018.37 1018.45 1018.73 1018.73 1019.01 1019.17 1019.25 1019.25 1019.29 1019.25 1019.29 1019.29
1015.33 1015.53 1015.73 1016.05 1016.29 1016.41 1016.45 1016.41 1016.49 1016.61 1016.85 1017.01 1017.13 1017.37 1017.61 1017.61 1017.73 1017.77 1017.81 1017.93 1018.05 1018.13 1018.09 1018.05 1018.01 1018.01 1018.01 1018.05 1018.17 1018.37 1018.57 1018.73 1018.97 1018.97 1019.13 1019.37 1019.41 1019.49 1019.45 1019.41 1019.45 1019.53
1015.45 1015.61 1015.85 1016.13 1016.33 1016.53 1016.53 1016.61 1016.77 1016.89 1017.01 1017.25 1017.41 1017.49 1017.61 1017.69 1017.77 1017.93 1017.97 1018.09 1018.21 1018.29 1018.25 1018.21 1018.17 1018.17 1018.21 1018.29 1018.41 1018.61 1018.73 1018.89 1019.01 1019.09 1019.33 1019.37 1019.49 1019.57 1019.69 1019.69 1019.77 1019.85
1015.61 1015.81 1016.01 1016.25 1016.45 1016.57 1016.65 1016.85 1017.05 1017.09 1017.21 1017.37 1017.45 1017.57 1017.69 1017.81 1017.93 1018.09 1018.17 1018.25 1018.29 1018.41 1018.41 1018.41 1018.37 1018.37 1018.37 1018.53 1018.65 1018.89 1018.93 1019.05 1019.13 1019.25 1019.49 1019.65 1019.69 1019.73 1019.77 1019.81 1020.01 1020.21
1015.73 1015.85 1016.09 1016.29 1016.49 1016.69 1016.89 1017.01 1017.17 1017.25 1017.37 1017.53 1017.65 1017.69 1017.77 1017.81 1017.97 1018.09 1018.21 1018.33 1018.37 1018.45 1018.53 1018.53 1018.53 1018.53 1018.53 1018.65 1018.77 1018.93 1019.05 1019.21 1019.29 1019.37 1019.61 1019.77 1019.81 1019.77 1019.85 1019.93 1020.09 1020.25
1015.89 1016.01 1016.25 1016.37 1016.57 1016.73 1016.89 1017.01 1017.21 1017.37 1017.45 1017.53 1017.61 1017.77 1017.77 1017.89 1017.97 1018.05 1018.17 1018.29 1018.41 1018.49 1018.57 1018.65 1018.69 1018.69 1018.65 1018.69 1018.81 1018.97 1019.09 1019.17 1019.21 1019.33 1019.57 1019.65 1019.73 1019.85 1019.77 1019.93 1020.17 1020.33
1015.89 1016.05 1016.25 1016.45 1016.65 1016.81 1016.97 1017.13 1017.33 1017.49 1017.53 1017.57 1017.77 1017.77 1017.73 1017.85 1017.93 1018.01 1018.13 1018.25 1018.41 1018.53 1018.61 1018.69 1018.73 1018.77 1018.77 1018.81 1019.01 1019.09 1019.13 1019.09 1019.21 1019.37 1019.61 1019.73 1019.77 1019.93 1019.97 1020.05 1020.21 1020.45
1015.89 1016.13 1016.25 1016.53 1016.73 1016.81 1017.01 1017.17 1017.37 1017.49 1017.57 1017.73 1017.77 1017.81 1017.77 1017.73 1017.89 1018.01 1018.05 1018.13 1018.33 1018.49 1018.61 1018.69 1018.73 1018.81 1018.85 1019.01 1019.17 1019.21 1019.25 1019.29 1019.37 1019.53 1019.77 1019.89 1019.97 1020.09 1020.17 1020.21 1020.41 1020.61
1015.93 1016.05 1016.25 1016.53 1016.73 1016.85 1017.01 1017.17 1017.33 1017.49 1017.57 1017.69 1017.73 1017.77 1017.77 1017.69 1017.73 1017.93 1017.97 1018.09 1018.29 1018.45 1018.57 1018.65 1018.73 1018.85 1018.93 1019.05 1019.21 1019.29 1019.37 1019.45 1019.57 1019.69 1019.81 1019.89 1020.01 1020.09 1020.29 1020.41 1020.57 1020.77
1016.09 1016.13 1016.33 1016.61 1016.77 1016.81 1016.97 1017.13 1017.25 1017.37 1017.49 1017.61 1017.65 1017.69 1017.57 1017.61 1017.77 1017.81 1017.93 1018.09 1018.29 1018.37 1018.57 1018.69 1018.81 1018.89 1018.97 1019.09 1019.13 1019.25 1019.37 1019.53 1019.65 1019.77 1019.81 1019.89 1019.93 1020.05 1020.25 1020.45 1020.65 1020.81
1016.29 1016.33 1016.37 1016.53 1016.65 1016.77 1016.89 1016.97 1017.09 1017.25 1017.41 1017.45 1017.41 1017.53 1017.53 1017.61 1017.77 1017.81 1017.93 1018.09 1018.21 1018.29 1018.41 1018.61 1018.77 1018.89 1018.97 1019.09 1019.17 1019.25 1019.37 1019.53 1019.61 1019.73 1019.81 1019.85 1019.93 1020.01 1020.17 1020.37 1020.61 1020.69
1016.25 1016.33 1016.49 1016.65 1016.81 1016.89 1016.85 1016.93 1017.05 1017.17 1017.25 1017.37 1017.25 1017.33 1017.53 1017.73 1017.73 1017.81 1017.89 1018.01 1018.17 1018.25 1018.41 1018.57 1018.77 1018.89 1019.01 1019.13 1019.29 1019.37 1019.45 1019.57 1019.69 1019.85 1019.93 1019.97 1020.05 1020.09 1020.17 1020.25 1020.41 1020.49
1016.41 1016.57 1016.77 1016.97 1017.05 1017.05 1017.01 1017.01 1017.05 1017.17 1017.29 1017.21 1017.17 1017.29 1017.45 1017.65 1017.77 1017.81 1017.85 1017.89 1017.97 1018.13 1018.21 1018.37 1018.57 1018.77 1018.89 1019.05 1019.17 1019.33 1019.41 1019.53 1019.61 1019.77 1019.89 1019.93 1020.01 1020.09 1020.13 1020.25 1020.33 1020.41
1016.65 1016.73 1016.93 1017.09 1017.21 1017.37 1017.41 1017.41 1017.37 1017.29 1017.29 1017.25 1017.21 1017.21 1017.29 1017.45 1017.53 1017.65 1017.81 1017.89 1017.85 1017.93 1018.05 1018.17 1018.37 1018.53 1018.65 1018.81 1018.97 1019.13 1019.21 1019.41 1019.53 1019.65 1019.77 1019.93 1020.13 1020.33 1020.37 1020.49 1020.57 1020.69
1017.01 1017.09 1017.25 1017.29 1017.41 1017.49 1017.53 1017.57 1017.61 1017.49 1017.29 1017.37 1017.37 1017.33 1017.37 1017.45 1017.57 1017.65 1017.73 1017.85 1017.93 1017.89 1017.89 1018.05 1018.21 1018.29 1018.33 1018.45 1018.61 1018.81 1019.05 1019.25 1019.49 1019.69 1019.85 1020.09 1020.33 1020.41 1020.41 1020.49 1020.61 1020.77
1017.01 1017.13 1017.17 1017.33 1017.45 1017.37 1017.41 1017.61 1017.73 1017.65 1017.69 1017.73 1017.69 1017.57 1017.61 1017.65 1017.77 1017.85 1017.89 1017.89 1017.93 1017.93 1017.97 1018.01 1018.05 1018.09 1018.29 1018.37 1018.61 1018.65 1018.93 1019.29 1019.57 1019.73 1019.81 1020.09 1020.21 1020.29 1020.41 1020.49 1020.49 1020.65
1017.21 1017.21 1017.33 1017.41 1017.41 1017.45 1017.57 1017.77 1017.81 1017.93 1017.93 1017.97 1017.97 1017.97 1017.93 1017.89 1017.93 1017.93 1017.93 1017.93 1017.97 1018.01 1018.01 1017.97 1017.97 1018.13 1018.33 1018.49 1018.61 1018.73 1018.89 1019.21 1019.57 1019.85 1020.01 1020.05 1020.05 1020.09 1020.17 1020.29 1020.37 1020.61
1016.45 1016.77 1017.69 1018.13 1018.13 1017.81 1017.65 1017.77 1017.93 1017.93 1017.93 1018.01 1018.09 1017.97 1018.01 1018.09 1017.93 1017.77 1017.81 1017.85 1017.89 1018.09 1018.13 1017.97 1017.97 1018.25 1018.41 1018.61 1018.77 1018.85 1018.93 1019.17 1019.49 1019.69 1019.89 1020.05 1020.13 1020.13 1020.09 1020.09 1020.29 1020.57
1016.69 1016.77 1016.89 1016.97 1017.57 1017.77 1017.81 1017.57 1017.57 1017.65 1017.69 1017.69 1017.81 1017.93 1018.05 1018.17 1018.05 1018.13 1018.05 1017.97 1017.97 1018.01 1018.05 1018.21 1018.77 1019.29 1018.81 1018.73 1018.81 1018.93 1018.97 1019.09 1019.21 1019.41 1019.61 1019.81 1019.97 1020.05 1020.01 1020.05 1020.25 1020.41
1017.09 1017.09 1017.13 1017.09 1017.05 1017.13 1017.29 1017.37 1017.41 1017.37 1017.49 1017.53 1017.65 1017.81 1018.01 1018.05 1018.13 1018.17 1018.21 1018.17 1018.17 1018.25 1018.29 1018.25 1018.61 1019.37 1019.61 1019.33 1019.25 1019.01 1019.09 1019.17 1019.09 1019.21 1019.41 1019.49 1019.57 1019.61 1019.69 1019.81 1020.05 1020.21
1017.65 1017.61 1017.57 1017.49 1017.33 1017.25 1017.17 1017.09 1017.09 1017.05 1017.13 1017.21 1017.37 1017.53 1017.69 1017.81 1017.85 1017.93 1018.13 1018.25 1018.17 1018.21 1018.25 1018.41 1018.57 1018.77 1019.65 1020.57 1020.25 1019.77 1019.65 1019.49 1019.21 1019.29 1019.37 1019.37 1019.29 1019.37 1019.45 1019.57 1019.89 1020.13
1018.01 1017.93 1017.89 1017.85 1017.77 1017.61 1017.53 1017.53 1017.45 1017.29 1017.13 1017.01 1017.17 1017.21 1017.41 1017.65 1017.73 1017.81 1017.85 1017.89 1017.77 1017.81 1018.05 1018.05 1018.57 1018.93 1018.97 1019.01 1019.13 1019.37 1019.61 1019.73 1019.49 1019.49 1019.49 1019.53 1019.57 1019.65 1019.65 1019.65 1019.81 1019.97
1018.53 1018.17 1018.09 1018.01 1017.97 1017.93 1017.89 1017.89 1017.73 1017.53 1017.41 1017.09 1017.09 1017.21 1017.29 1017.29 1017.29 1017.45 1017.53 1017.49 1017.45 1017.57 1017.69 1017.97 1018.25 1018.53 1018.65 1018.69 1018.97 1019.21 1019.45 1019.37 1019.33 1019.33 1019.41 1019.45 1019.49 1019.73 1019.85 1019.85 1019.89 1019.81
1018.57 1018.37 1018.21 1018.09 1018.09 1018.05 1018.01 1018.05 1017.93 1017.81 1017.61 1017.37 1017.09 1016.93 1016.89 1016.85 1016.89 1017.05 1017.41 1017.33 1017.29 1017.33 1017.45 1017.85 1018.09 1018.37 1018.57 1018.69 1019.17 1019.49 1019.53 1019.05 1018.85 1018.97 1019.21 1019.41 1019.49 1019.49 1019.57 1019.97 1019.89 1019.85
1018.77 1018.65 1018.49 1018.41 1018.33 1018.25 1018.17 1018.09 1017.97 1017.85 1017.65 1017.49 1017.25 1017.01 1016.77 1016.61 1016.57 1016.65 1017.05 1017.21 1017.01 1017.01 1017.25 1017.61 1017.81 1017.93 1018.25 1018.45 1018.53 1018.81 1019.21 1019.09 1019.09 1019.37 1019.69 1019.45 1019.25 1019.21 1019.53 1019.85 1020.29 1020.29
Wind_Speed
5 4 4 3 4 3 2 3 2 2 2 3 5 4 4 4 5 4 3 3 3 4 3 2 2 1 2 3 4 5 4 4 4 3 4 4 4 4 5 4 3 4
5 5 5 4 5 3 3 2 1 2 3 4 5 5 4 3 3 4 3 3 3 3 2 1 2 2 4 5 7 5 4 6 6 5 6 6 5 4 3 4 4 5
4 5 4 5 5 4 3 2 2 3 4 5 5 4 3 2 3 3 2 3 4 3 4 4 4 4 4 5 6 5 6 6 7 6 6 6 4 4 4 4 5 4
5 5 4 5 5 4 3 3 4 5 5 5 4 3 3 2 3 4 4 4 3 3 1 1 2 3 4 4 4 4 5 5 4 4 4 3 3 3 3 4 6 7
6 5 5 5 5 4 3 4 4 3 4 4 4 3 3 3 3 3 3 3 3 3 3 3 3 3 3 5 5 5 4 4 4 4 5 4 3 3 3 3 4 5
5 6 6 6 5 5 4 4 3 3 4 3 3 3 2 2 3 3 3 3 3 3 3 3 2 3 4 4 4 3 3 4 4 5 5 4 4 4 4 3 4 4
6 5 6 6 6 5 5 4 4 3 3 3 2 2 3 3 3 3 3 3 3 3 3 3 3 3 3 3 3 4 4 4 4 4 4 3 4 4 4 4 5 4
5 5 6 5 6 5 5 5 4 3 2 2 2 3 2 3 4 3 4 3 3 3 3 3 3 3 2 3 4 3 2 3 4 4 4 4 3 4 4 4 4 4
5 5 5 7 6 5 5 5 4 4 3 2 2 3 3 2 3 3 3 3 4 4 4 3 3 3 3 4 3 2 2 2 4 5 4 3 4 4 4 3 5 4
5 4 6 6 5 4 6 5 5 4 3 3 3 4 5 4 4 3 3 3 4 4 4 3 3 3 4 4 3 3 2 4 4 4 3 2 3 4 5 3 4 4
3 3 5 6 5 4 6 6 5 5 4 5 4 4 3 3 4 3 3 3 3 4 4 4 3 2 3 3 4 3 3 3 4 4 3 3 2 3 6 4 3 2
4 4 4 5 4 3 4 5 6 5 5 5 5 4 3 3 4 3 4 3 2 2 3 3 4 2 2 3 2 2 3 3 3 3 1 2 2 3 3 4 4 1
4 2 3 1 1 1 1 3 3 4 4 5 4 4 5 3 3 3 3 3 5 4 4 4 4 4 3 3 3 3 2 2 3 3 1 1 2 0 4 3 2 2
2 2 1 2 1 1 1 0 2 3 3 3 3 4 5 5 4 3 4 3 4 5 4 5 5 5 5 5 5 5 4 4 4 4 4 2 4 1 2 1 2 2
2 2 3 3 1 0 1 1 1 3 3 4 3 2 3 4 4 4 4 4 4 5 5 5 5 5 5 6 5 7 6 5 4 4 2 3 3 3 3 2 3 4
3 2 2 2 1 1 1 0 2 3 1 2 3 3 2 2 2 2 3 4 4 4 5 5 5 4 6 13 8 6 5 5 4 3 3 3 2 2 3 3 3 4
2 1 1 2 1 2 0 0 2 2 2 3 4 3 2 1 2 3 3 3 3 4 4 3 5 4 8 12 7 11 6 5 4 3 4 5 5 4 4 4 3 3
7 5 2 3 4 4 2 2 3 3 3 3 3 2 3 3 3 3 4 4 4 5 4 4 4 7 11 9 9 11 10 7 5 5 3 3 4 4 4 3 2 4
4 6 12 13 6 5 3 5 5 5 4 3 3 1 1 3 3 3 4 4 3 5 7 4 3 8 11 10 11 13 14 10 6 6 6 5 4 4 3 4 4 4
7 6 5 4 6 6 4 4 3 3 3 3 3 2 1 3 5 5 4 3 3 4 4 4 6 3 7 11 12 12 14 10 8 6 5 6 6 6 5 4 6 6
8 7 6 4 1 2 3 2 3 3 5 5 3 3 5 6 6 5 5 5 4 2 3 4 2 4 11 10 10 12 10 5 4 4 5 5 6 6 5 5 6 6
8 7 6 6 6 5 3 2 2 2 2 3 4 4 5 5 5 5 7 7 7 6 5 7 3 11 4 4 7 5 6 6 5 2 1 1 2 3 6 5 5 6
8 7 6 6 7 7 7 7 7 6 3 2 2 3 5 6 6 6 6 7 8 7 6 6 3 10 16 18 16 15 10 6 5 3 2 2 1 1 2 5 6 7
9 8 7 6 5 6 6 6 6 5 6 4 3 2 3 3 4 6 7 8 9 8 7 5 5 9 17 17 17 16 13 9 7 7 5 5 5 4 6 3 3 5
6 7 6 5 5 5 4 5 5 5 6 6 6 3 4 5 5 4 7 7 7 8 9 8 5 7 13 13 13 13 12 9 8 7 6 6 7 9 6 5 3 1
6 7 7 6 6 6 5 5 5 6 5 5 6 6 5 5 4 3 4 6 7 8 3 5 5 6 11 17 16 17 17 8 3 2 6 9 11 9 5 5 3 4
Wind_Direction
133 133 128 136 124 113 115 103 119 166 109 102 99 98 79 66 65 67 74 63 66 53 55 84 102 53 52 119 111 85 83 100 105 95 77 60 54 56 51 49 53 65
149 131 137 118 106 108 99 112 122 108 90 86 88 84 81 93 79 86 90 99 110 116 109 74 69 66 52 61 80 90 91 89 90 96 98 83 72 64 48 36 44 50
129 123 118 118 120 109 105 88 82 68 83 85 83 87 101 99 120 124 107 84 76 70 52 61 67 71 69 69 71 68 65 64 61 57 70 81 77 72 67 73 91 94
121 119 112 102 99 102 90 83 63 64 82 92 96 99 110 101 75 69 84 95 94 80 95 97 91 81 86 90 90 79 80 90 101 102 97 86 82 79 53 44 59 63
125 120 111 108 109 105 97 89 92 94 84 78 84 93 94 100 112 114 112 104 109 98 75 69 65 77 83 81 82 91 99 104 105 98 96 95 97 91 76 72 73 75
131 130 127 129 128 127 119 116 105 92 92 98 107 108 136 146 138 123 128 143 117 124 124 136 125 90 104 117 126 132 113 99 115 121 118 129 134 127 107 101 103 104
140 135 134 132 135 140 140 131 123 117 122 131 127 143 165 174 137 149 129 114 147 143 125 106 109 115 121 133 122 110 127 150 149 137 134 116 105 114 134 109 88 84
134 129 136 138 140 147 131 128 131 124 114 130 159 159 205 160 154 154 151 161 147 130 123 131 128 133 131 95 87 106 128 137 137 119 108 120 120 91 65 89 117 96
139 140 147 142 148 146 138 140 135 132 145 158 162 169 224 207 155 164 182 166 133 143 152 147 139 128 94 91 106 114 113 91 81 89 97 103 97 111 111 72 81 90
141 167 142 147 146 151 150 140 140 141 162 173 193 198 197 210 135 178 189 144 145 149 144 147 127 119 129 128 141 139 116 93 98 103 112 123 135 136 113 116 87 100
175 171 152 154 163 159 152 150 152 157 181 188 202 208 196 156 139 195 158 162 166 154 141 140 130 147 139 151 129 141 133 114 127 143 158 147 160 119 127 116 118 120
182 190 167 170 169 167 169 167 164 170 182 204 198 194 170 161 170 186 175 165 161 168 143 132 135 161 154 122 138 104 115 131 122 110 137 118 72 84 95 110 147 149
169 139 88 79 75 318 196 170 176 186 196 207 201 190 149 197 184 177 180 175 177 187 166 158 158 175 173 150 151 173 131 166 131 137 155 161 128 151 152 132 132 167
89 92 94 103 81 315 279 120 156 173 237 250 229 182 162 180 197 195 177 201 177 187 181 175 177 175 178 175 177 180 177 179 166 159 177 171 148 137 65 115 172 85
104 117 133 126 149 66 343 22 301 225 211 245 256 209 169 189 192 199 180 201 213 183 191 177 193 177 190 185 182 179 175 168 167 172 139 112 86 93 87 70 99 87
105 75 34 46 21 210 166 129 329 309 289 267 258 258 206 193 248 237 218 197 224 212 194 185 188 185 191 182 194 172 169 169 146 164 153 122 109 117 104 81 77 104
106 166 147 116 220 273 13 93 236 293 324 313 297 309 324 292 251 270 278 269 233 238 209 194 188 175 173 173 198 172 153 134 150 145 137 151 163 161 156 167 171 128
151 183 240 272 228 219 157 258 251 211 224 231 268 319 320 320 289 254 256 251 264 279 258 213 189 155 160 166 177 171 145 144 136 139 148 155 155 146 152 151 137 120
171 166 158 187 197 250 200 209 204 204 206 201 225 212 0 323 295 268 245 257 243 229 255 253 205 159 151 151 149 153 142 146 161 164 166 180 172 178 169 160 135 132
37 39 35 57 123 158 216 224 197 191 195 201 174 150 216 276 283 307 324 297 284 268 277 339 354 344 160 157 157 157 162 165 181 172 183 178 181 192 187 170 148 158
23 25 24 26 33 152 173 192 253 211 187 208 201 180 192 218 242 261 277 281 293 345 304 258 145 149 232 191 184 182 186 187 209 180 181 193 181 195 187 158 160 168
8 11 9 3 1 2 334 320 253 251 217 183 190 192 194 215 229 216 221 244 254 252 257 262 199 182 139 331 260 231 201 221 227 191 172 190 185 142 157 165 167 182
359 357 2 359 356 343 355 1 358 349 329 316 247 220 205 197 199 203 205 228 245 245 246 249 106 158 168 197 202 202 201 217 229 243 238 233 290 221 171 183 200 197
333 339 344 347 343 341 352 348 339 333 323 323 292 283 275 246 200 193 194 213 226 232 218 228 150 182 185 200 202 200 195 203 202 208 216 229 233 200 212 178 137 233
326 327 326 328 330 324 338 325 317 322 316 313 309 281 240 241 247 190 188 214 229 231 211 203 198 187 194 203 208 206 209 215 204 199 202 218 215 212 176 146 115 355
316 323 335 338 327 325 320 316 313 300 295 295 300 305 300 288 255 259 185 222 233 235 220 176 207 202 188 204 205 206 205 220 216 251 240 227 219 198 168 124 78 94